Rochelle, IL

8:56 PM CST on January 20, 2017 (GMT -0600)
Rochelle

Weather History for KRPJ - January, 2014

Change the Weather History Date:

Saturday, January 25, 2014

  Actual Average (KRFD) Record (KRFD)
Temperature  
Mean Temperature 18 °F -  
Max Temperature 32 °F 28 °F 54 °F (1973)
Min Temperature 5 °F 11 °F -20 °F (1936)
Degree Days  
Heating Degree Days 46    
Moisture  
Dew Point 6 °F    
Average Humidity 62    
Maximum Humidity 95    
Minimum Humidity 40    
Precipitation  
Precipitation 0.00 in - - ()
Sea Level Pressure  
Sea Level Pressure 29.67 in    
Wind  
Wind Speed 20 mph (WNW)    
Max Wind Speed 30 mph    
Max Gust Speed 43 mph    
Visibility 9 miles    
Events      
Averages and records for this station are not official NWS values.
T = Trace of Precipitation, MM = Missing Value Source: NWS Daily Summary

Daily Weather History Graph

Daily Weather History Graph

Search for Another Location

Airport or City:

Trip Planner

Search our weather history database for the weather conditions in past years. The results will help you decide how hot, cold, wet, or windy it might be!

Date:

Astronomy

Jan. 25, 2014 Rise Set
Actual Time 7:15 AM CST 5:02 PM CST
Civil Twilight 6:45 AM CST 5:32 PM CST
Nautical Twilight 6:11 AM CST 6:06 PM CST
Astronomical Twilight 5:38 AM CST 6:39 PM CST
Moon 1:46 AM CST (1/25) 12:03 PM CST (1/25)
Length of Visible Light 10h 47m
Length of Day
9h 47m
Waning Crescent, 34% of the Moon is Illuminated
Jan 25
Waning Crescent
Jan 30
New
Feb 6
First Quarter
Feb 14
Full
Feb 22
Last Quarter

Hourly Weather History & Observations

Time (CST) Temp. Windchill Dew Point Humidity Pressure Visibility Wind Dir Wind Speed Gust Speed Precip Events Conditions
12:15 AM 28.4 °F 14.4 °F 26.6 °F 93% 29.45 in 3.0 mi WSW 23.0 mph - N/A   Overcast
12:35 AM 28.4 °F 15.4 °F 27.0 °F 94% 29.44 in 5.0 mi WSW 19.6 mph 25.3 mph N/A   Overcast
12:55 AM 28.9 °F 15.8 °F 27.3 °F 94% 29.44 in 10.0 mi WSW 20.7 mph - N/A   Overcast
1:15 AM 29.7 °F 16.7 °F 28.0 °F 94% 29.43 in 10.0 mi WSW 20.7 mph - N/A   Overcast
1:35 AM 29.8 °F 18.0 °F 28.2 °F 94% 29.43 in 7.0 mi WSW 17.3 mph - N/A   Overcast
1:55 AM 31.1 °F 18.9 °F 29.7 °F 94% 29.42 in 10.0 mi West 19.6 mph 25.3 mph N/A   Overcast
2:15 AM 31.8 °F 20.6 °F 30.2 °F 94% 29.42 in 7.0 mi West 17.3 mph - N/A   Overcast
2:35 AM 32.0 °F 20.8 °F 30.7 °F 95% 29.43 in 10.0 mi West 17.3 mph - N/A   Overcast
2:55 AM 32.5 °F 20.5 °F 30.9 °F 94% 29.44 in 5.0 mi WNW 20.7 mph 35.7 mph N/A   Overcast
3:15 AM 32.9 °F 21.0 °F 29.3 °F 87% 29.44 in 10.0 mi WNW 20.7 mph 26.5 mph N/A   Overcast
3:35 AM 32.4 °F 19.7 °F 22.8 °F 68% 29.44 in 7.0 mi NW 23.0 mph 32.2 mph N/A   Overcast
3:55 AM 31.8 °F 20.2 °F 21.2 °F 65% 29.45 in 10.0 mi NW 18.4 mph 27.6 mph N/A   Mostly Cloudy
4:15 AM 31.1 °F 18.3 °F 21.2 °F 67% 29.46 in 10.0 mi WNW 21.9 mph 29.9 mph N/A   Scattered Clouds
4:35 AM 30.4 °F 18.7 °F 21.2 °F 69% 29.46 in 10.0 mi NW 17.3 mph 27.6 mph N/A   Scattered Clouds
4:55 AM 29.8 °F 16.6 °F 21.2 °F 70% 29.47 in 10.0 mi WNW 21.9 mph 33.4 mph N/A   Scattered Clouds
5:15 AM 28.8 °F 14.9 °F 17.4 °F 63% 29.47 in 7.0 mi NW 23.0 mph 35.7 mph N/A   Clear
5:35 AM 27.5 °F 13.9 °F 17.8 °F 67% 29.48 in 10.0 mi WNW 20.7 mph 26.5 mph N/A   Clear
5:55 AM 27.1 °F 14.1 °F 17.8 °F 68% 29.49 in 10.0 mi WNW 18.4 mph 26.5 mph N/A   Clear
6:15 AM 26.6 °F 13.1 °F 16.9 °F 67% 29.50 in 10.0 mi WNW 19.6 mph 27.6 mph N/A   Clear
6:35 AM 26.2 °F 11.2 °F 17.4 °F 69% 29.51 in 10.0 mi WNW 24.2 mph 28.8 mph N/A   Clear
6:55 AM 24.6 °F 9.4 °F 11.8 °F 58% 29.52 in 5.0 mi WNW 23.0 mph 38.0 mph N/A   Haze
7:15 AM 23.2 °F 7.5 °F 9.5 °F 56% 29.54 in 7.0 mi WNW 23.0 mph 35.7 mph N/A   Clear
7:35 AM 21.6 °F 4.7 °F 4.1 °F 47% 29.55 in 7.0 mi WNW 25.3 mph 41.4 mph N/A   Clear
7:55 AM 20.8 °F 3.4 °F 4.6 °F 50% 29.56 in 10.0 mi WNW 26.5 mph 36.8 mph N/A   Clear
8:15 AM 19.4 °F 0.5 °F 3.2 °F 49% 29.58 in 10.0 mi WNW 29.9 mph 42.6 mph N/A   Clear
8:35 AM 18.7 °F 0.8 °F 2.5 °F 49% 29.59 in 10.0 mi NW 25.3 mph 38.0 mph N/A   Clear
8:55 AM 18.5 °F -0.1 °F 1.2 °F 47% 29.61 in 10.0 mi NW 27.6 mph 36.8 mph N/A   Clear
9:15 AM 18.1 °F -0.3 °F 0.7 °F 47% 29.63 in 10.0 mi NW 26.5 mph 34.5 mph N/A   Clear
9:35 AM 18.1 °F 2.9 °F 1.0 °F 47% 29.65 in 10.0 mi NW 17.3 mph 34.5 mph N/A   Clear
9:55 AM 17.2 °F -1.1 °F 0.7 °F 48% 29.66 in 10.0 mi WNW 25.3 mph 35.7 mph N/A   Clear
10:15 AM 17.4 °F 0.6 °F 0.5 °F 48% 29.68 in 10.0 mi NW 20.7 mph 28.8 mph N/A   Clear
10:35 AM 16.7 °F -0.7 °F -0.4 °F 47% 29.70 in 10.0 mi WNW 21.9 mph 32.2 mph N/A   Clear
10:55 AM 16.9 °F -0.5 °F -0.4 °F 47% 29.71 in 10.0 mi NW 21.9 mph 27.6 mph N/A   Clear
11:15 AM 16.2 °F -1.0 °F -2.6 °F 44% 29.72 in 10.0 mi NW 20.7 mph 31.1 mph N/A   Clear
11:35 AM 15.8 °F -2.3 °F -3.8 °F 42% 29.73 in 10.0 mi NW 23.0 mph 33.4 mph N/A   Clear
11:55 AM 15.6 °F -2.2 °F -4.7 °F 40% 29.74 in 10.0 mi WNW 21.9 mph 34.5 mph N/A   Clear
12:15 PM 14.9 °F -2.3 °F -0.9 °F 50% 29.74 in 10.0 mi WNW 19.6 mph 32.2 mph N/A   Clear
12:35 PM 14.7 °F -4.1 °F -3.1 °F 45% 29.75 in 10.0 mi WNW 24.2 mph 35.7 mph N/A   Clear
12:55 PM 14.4 °F -5.7 °F -3.6 °F 45% 29.76 in 10.0 mi WNW 27.6 mph 35.7 mph N/A   Clear
1:15 PM 14.9 °F -3.9 °F -3.1 °F 45% 29.76 in 10.0 mi WNW 24.2 mph 29.9 mph N/A   Clear
1:35 PM 14.9 °F -4.9 °F -1.3 °F 49% 29.76 in 10.0 mi WNW 27.6 mph 31.1 mph N/A   Clear
1:55 PM 14.9 °F -3.5 °F -0.8 °F 50% 29.77 in 10.0 mi WNW 23.0 mph 29.9 mph N/A   Clear
2:15 PM 14.0 °F -5.8 °F -2.6 °F 48% 29.77 in 10.0 mi WNW 26.5 mph 32.2 mph N/A   Clear
2:35 PM 14.0 °F -2.5 °F -3.6 °F 46% 29.78 in 10.0 mi WNW 17.3 mph 28.8 mph N/A   Clear
2:55 PM 14.4 °F -3.4 °F -2.2 °F 48% 29.79 in 10.0 mi WNW 20.7 mph 27.6 mph N/A   Clear
3:15 PM 14.0 °F -4.7 °F -1.8 °F 49% 29.80 in 10.0 mi WNW 23.0 mph 29.9 mph N/A   Clear
3:35 PM 13.6 °F -1.9 °F -2.0 °F 50% 29.80 in 10.0 mi WNW 15.0 mph - N/A   Clear
3:55 PM 13.1 °F -4.6 °F 0.3 °F 57% 29.81 in 10.0 mi West 19.6 mph 23.0 mph N/A   Clear
4:15 PM 12.2 °F -6.3 °F -0.8 °F 56% 29.82 in 10.0 mi West 20.7 mph 25.3 mph N/A   Clear
4:35 PM 11.3 °F -5.5 °F -3.1 °F 52% 29.83 in 10.0 mi WNW 16.1 mph 21.9 mph N/A   Clear
4:55 PM 10.4 °F -7.7 °F -1.1 °F 60% 29.84 in 10.0 mi West 18.4 mph - N/A   Clear
5:15 PM 9.0 °F -9.5 °F -1.5 °F 63% 29.84 in 10.0 mi West 18.4 mph - N/A   Clear
5:35 PM 8.2 °F -10.5 °F -1.3 °F 65% 29.85 in 10.0 mi West 18.4 mph - N/A   Clear
5:55 PM 7.7 °F -11.2 °F -1.8 °F 65% 29.86 in 10.0 mi West 18.4 mph 25.3 mph N/A   Clear
6:15 PM 6.8 °F -11.3 °F -2.2 °F 67% 29.87 in 10.0 mi West 16.1 mph - N/A   Clear
6:35 PM 6.4 °F -11.7 °F -2.6 °F 67% 29.88 in 10.0 mi West 16.1 mph - N/A   Clear
6:55 PM 6.3 °F -13.1 °F -2.6 °F 67% 29.88 in 10.0 mi West 18.4 mph - N/A   Clear
7:15 PM 6.3 °F -12.5 °F -2.7 °F 67% 29.87 in 10.0 mi West 17.3 mph 23.0 mph N/A   Clear
7:35 PM 5.9 °F -11.2 °F -3.3 °F 66% 29.87 in 10.0 mi West 13.8 mph - N/A   Clear
7:55 PM 5.7 °F -12.0 °F -3.6 °F 65% 29.88 in 10.0 mi West 15.0 mph - N/A   Clear
8:15 PM 5.5 °F -11.6 °F -4.0 °F 65% 29.87 in 10.0 mi WNW 13.8 mph - N/A   Clear
9:15 PM 6.4 °F -7.3 °F -2.6 °F 67% 29.85 in 10.0 mi West 9.2 mph - N/A   Clear
9:35 PM 6.8 °F -7.8 °F -2.6 °F 66% 29.84 in 10.0 mi WNW 10.4 mph - N/A   Clear
9:55 PM 6.8 °F -5.9 °F -2.9 °F 64% 29.84 in 10.0 mi West 8.1 mph - N/A   Clear
10:15 PM 6.8 °F -3.5 °F -2.2 °F 67% 29.82 in 10.0 mi West 5.8 mph - N/A   Scattered Clouds
10:35 PM 6.8 °F -2.0 °F -2.2 °F 67% 29.83 in 10.0 mi WSW 4.6 mph - N/A   Scattered Clouds
10:55 PM 7.3 °F 0.5 °F -2.0 °F 66% 29.82 in 10.0 mi WNW 3.5 mph - N/A   Mostly Cloudy
11:15 PM 7.7 °F -0.9 °F -1.8 °F 65% 29.82 in 10.0 mi West 4.6 mph - N/A   Mostly Cloudy
11:35 PM 7.7 °F -0.9 °F -1.8 °F 65% 29.79 in 10.0 mi WSW 4.6 mph - N/A   Overcast
11:55 PM 8.2 °F -1.8 °F -2.0 °F 63% 29.78 in 10.0 mi SW 5.8 mph - N/A   Overcast